Stündliche Wetter Otradnoe

Heute, 15 April, Donnerstag

Zeit Temperatur Niederschläge Wind Luftdruck Luftfeuchtigkeit
00:00 +2°C° 0 mm 5 m/S 751 mmHg 86%
01:00 +2°C° 0 mm 5 m/S 751 mmHg 86%
02:00 +2°C° 0 mm 5 m/S 751 mmHg 85%
03:00 +2°C° 0 mm 5 m/S 751 mmHg 84%
04:00 +2°C° 0 mm 5 m/S 751 mmHg 84%
05:00 +2°C° 0 mm 5 m/S 751 mmHg 83%
06:00 +2°C° 0.1 mm 5 m/S 751 mmHg 81%
07:00 +2°C° 0.1 mm 5 m/S 751 mmHg 79%
08:00 +2°C° 0.1 mm 5 m/S 751 mmHg 77%
09:00 +2°C° 0.2 mm 5 m/S 751 mmHg 78%
10:00 +2°C° 0.2 mm 6 m/S 751 mmHg 79%
11:00 +2°C° 0.2 mm 6 m/S 751 mmHg 80%
12:00 +3°C° 0.1 mm 6 m/S 751 mmHg 81%
13:00 +3°C° 0.1 mm 6 m/S 751 mmHg 82%
14:00 +3°C° 0.1 mm 6 m/S 751 mmHg 83%
15:00 +3°C° 0.3 mm 6 m/S 751 mmHg 85%
16:00 +3°C° 0.3 mm 6 m/S 750 mmHg 87%
17:00 +2°C° 0.3 mm 6 m/S 750 mmHg 89%
18:00 +2°C° 0.1 mm 6 m/S 750 mmHg 90%
19:00 +2°C° 0.1 mm 6 m/S 750 mmHg 91%
20:00 +2°C° 0.1 mm 6 m/S 750 mmHg 92%
21:00 +3°C° 0 mm 6 m/S 750 mmHg 92%
22:00 +3°C° 0 mm 6 m/S 750 mmHg 92%
23:00 +3°C° 0 mm 6 m/S 749 mmHg 93%

Morgen, 16 April, Freitag

Zeit Temperatur Niederschläge Wind Luftdruck Luftfeuchtigkeit
00:00 +3°C° 0.2 mm 6 m/S 749 mmHg 93%
01:00 +3°C° 0.2 mm 6 m/S 749 mmHg 93%
02:00 +3°C° 0.2 mm 6 m/S 749 mmHg 94%
03:00 +3°C° 0.1 mm 6 m/S 749 mmHg 94%
04:00 +3°C° 0.1 mm 5 m/S 749 mmHg 94%
05:00 +3°C° 0.1 mm 5 m/S 749 mmHg 94%
06:00 +3°C° 0.5 mm 5 m/S 749 mmHg 94%
07:00 +3°C° 0.5 mm 5 m/S 749 mmHg 95%
08:00 +4°C° 0.5 mm 4 m/S 749 mmHg 95%
09:00 +5°C° 0.1 mm 5 m/S 750 mmHg 92%
10:00 +6°C° 0.1 mm 5 m/S 750 mmHg 90%
11:00 +7°C° 0.1 mm 5 m/S 750 mmHg 88%
12:00 +8°C° 0 mm 5 m/S 750 mmHg 85%
13:00 +8°C° 0 mm 5 m/S 750 mmHg 82%
14:00 +9°C° 0 mm 6 m/S 750 mmHg 79%
15:00 +9°C° 0 mm 6 m/S 750 mmHg 81%
16:00 +9°C° 0 mm 5 m/S 750 mmHg 82%
17:00 +9°C° 0 mm 5 m/S 751 mmHg 84%
18:00 +9°C° 0.1 mm 5 m/S 751 mmHg 86%
19:00 +8°C° 0.1 mm 4 m/S 751 mmHg 88%
20:00 +8°C° 0.1 mm 4 m/S 751 mmHg 90%
21:00 +8°C° 0.1 mm 4 m/S 751 mmHg 91%
22:00 +8°C° 0.1 mm 4 m/S 751 mmHg 91%
23:00 +8°C° 0.1 mm 4 m/S 751 mmHg 92%

übermorgen, 17 April, Samstag

Zeit Temperatur Niederschläge Wind Luftdruck Luftfeuchtigkeit
00:00 +8°C° 0.2 mm 4 m/S 751 mmHg 92%
01:00 +8°C° 0.2 mm 4 m/S 751 mmHg 92%
02:00 +8°C° 0.2 mm 5 m/S 751 mmHg 92%
03:00 +8°C° 0 mm 4 m/S 752 mmHg 92%
04:00 +7°C° 0 mm 4 m/S 752 mmHg 92%
05:00 +7°C° 0 mm 4 m/S 752 mmHg 92%
06:00 +7°C° 0 mm 4 m/S 753 mmHg 90%
07:00 +8°C° 0 mm 4 m/S 753 mmHg 89%
08:00 +8°C° 0 mm 4 m/S 753 mmHg 87%
09:00 +8°C° 0 mm 4 m/S 753 mmHg 87%
10:00 +8°C° 0 mm 4 m/S 754 mmHg 86%
11:00 +8°C° 0 mm 4 m/S 754 mmHg 85%
12:00 +10°C° 0.1 mm 4 m/S 754 mmHg 84%
13:00 +10°C° 0.1 mm 4 m/S 754 mmHg 83%
14:00 +11°C° 0.1 mm 4 m/S 754 mmHg 82%
15:00 +11°C° 0 mm 4 m/S 754 mmHg 81%
16:00 +11°C° 0 mm 4 m/S 754 mmHg 81%
17:00 +11°C° 0 mm 4 m/S 754 mmHg 81%
18:00 +11°C° 0 mm 4 m/S 754 mmHg 83%
19:00 +10°C° 0 mm 3 m/S 754 mmHg 85%
20:00 +10°C° 0 mm 3 m/S 755 mmHg 87%
21:00 +10°C° 0 mm 3 m/S 755 mmHg 87%
22:00 +9°C° 0 mm 3 m/S 755 mmHg 88%
23:00 +9°C° 0 mm 3 m/S 755 mmHg 89%

18 April, Sonntag

Zeit Temperatur Niederschläge Wind Luftdruck Luftfeuchtigkeit
00:00 +9°C° 0 mm 3 m/S 755 mmHg 87%
01:00 +8°C° 0 mm 4 m/S 755 mmHg 85%
02:00 +8°C° 0 mm 4 m/S 754 mmHg 83%
03:00 +7°C° 0 mm 4 m/S 754 mmHg 84%
04:00 +6°C° 0 mm 4 m/S 754 mmHg 85%
05:00 +5°C° 0 mm 4 m/S 755 mmHg 86%
06:00 +6°C° 0 mm 4 m/S 755 mmHg 81%
07:00 +7°C° 0 mm 5 m/S 755 mmHg 77%
08:00 +8°C° 0 mm 5 m/S 755 mmHg 72%
09:00 +9°C° 0 mm 5 m/S 755 mmHg 69%
10:00 +10°C° 0 mm 5 m/S 755 mmHg 66%
11:00 +13°C° 0 mm 5 m/S 755 mmHg 63%
12:00 +13°C° 0 mm 5 m/S 755 mmHg 64%
13:00 +13°C° 0 mm 5 m/S 755 mmHg 64%
14:00 +13°C° 0 mm 5 m/S 755 mmHg 65%
15:00 +12°C° 0.1 mm 4 m/S 755 mmHg 69%
16:00 +11°C° 0.1 mm 3 m/S 755 mmHg 74%
17:00 +10°C° 0.1 mm 3 m/S 755 mmHg 79%
18:00 +10°C° 0.1 mm 2 m/S 755 mmHg 81%
19:00 +10°C° 0.1 mm 2 m/S 755 mmHg 84%
20:00 +10°C° 0.1 mm 1 m/S 755 mmHg 87%
21:00 +9°C° 0 mm 2 m/S 755 mmHg 87%
22:00 +9°C° 0 mm 2 m/S 755 mmHg 87%
23:00 +9°C° 0 mm 2 m/S 755 mmHg 88%

19 April, Montag

Zeit Temperatur Niederschläge Wind Luftdruck Luftfeuchtigkeit
00:00 +9°C° 0.1 mm 2 m/S 755 mmHg 89%
01:00 +9°C° 0.1 mm 3 m/S 755 mmHg 89%
02:00 +9°C° 0.1 mm 3 m/S 755 mmHg 90%
03:00 +8°C° 0.2 mm 3 m/S 755 mmHg 91%
04:00 +8°C° 0.2 mm 3 m/S 755 mmHg 92%
05:00 +8°C° 0.2 mm 3 m/S 755 mmHg 93%
06:00 +8°C° 0 mm 3 m/S 755 mmHg 88%
07:00 +8°C° 0 mm 4 m/S 755 mmHg 84%
08:00 +10°C° 0 mm 4 m/S 755 mmHg 79%
09:00 +10°C° 0 mm 5 m/S 754 mmHg 73%
10:00 +12°C° 0 mm 5 m/S 754 mmHg 68%
11:00 +13°C° 0 mm 5 m/S 754 mmHg 62%
12:00 +13°C° 0.3 mm 5 m/S 754 mmHg 65%
13:00 +12°C° 0.3 mm 5 m/S 754 mmHg 67%
14:00 +12°C° 0.3 mm 4 m/S 754 mmHg 70%
15:00 +12°C° 0.1 mm 4 m/S 753 mmHg 67%
16:00 +13°C° 0.1 mm 5 m/S 753 mmHg 65%
17:00 +13°C° 0.1 mm 5 m/S 752 mmHg 62%
18:00 +12°C° 0 mm 5 m/S 752 mmHg 63%
19:00 +10°C° 0 mm 5 m/S 752 mmHg 64%
20:00 +9°C° 0 mm 5 m/S 752 mmHg 66%
21:00 +9°C° 0 mm 5 m/S 752 mmHg 67%
22:00 +9°C° 0 mm 5 m/S 751 mmHg 68%
23:00 +8°C° 0 mm 5 m/S 751 mmHg 69%

20 April, Dienstag

Zeit Temperatur Niederschläge Wind Luftdruck Luftfeuchtigkeit
00:00 +8°C° 0 mm 5 m/S 750 mmHg 70%
01:00 +8°C° 0 mm 5 m/S 750 mmHg 71%
02:00 +8°C° 0 mm 5 m/S 750 mmHg 72%
03:00 +7°C° 0 mm 5 m/S 749 mmHg 74%
04:00 +7°C° 0 mm 6 m/S 749 mmHg 76%
05:00 +7°C° 0 mm 6 m/S 748 mmHg 79%
06:00 +7°C° 0 mm 6 m/S 748 mmHg 78%
07:00 +7°C° 0 mm 6 m/S 747 mmHg 77%
08:00 +6°C° 0 mm 7 m/S 747 mmHg 76%
09:00 +6°C° 0.1 mm 7 m/S 746 mmHg 75%
10:00 +6°C° 0.1 mm 7 m/S 746 mmHg 74%
11:00 +6°C° 0.1 mm 7 m/S 745 mmHg 72%
12:00 +5°C° 0.2 mm 7 m/S 745 mmHg 78%
13:00 +4°C° 0.2 mm 8 m/S 744 mmHg 83%
14:00 +2°C° 0.2 mm 8 m/S 744 mmHg 89%
15:00 +3°C° 0.4 mm 7 m/S 743 mmHg 91%
16:00 +3°C° 0.4 mm 7 m/S 743 mmHg 93%
17:00 +2°C° 0.4 mm 7 m/S 742 mmHg 95%
18:00 +2°C° 0.4 mm 7 m/S 741 mmHg 96%
19:00 +3°C° 0.4 mm 7 m/S 741 mmHg 96%
20:00 +3°C° 0.4 mm 7 m/S 740 mmHg 96%
21:00 +2°C° 0.3 mm 7 m/S 740 mmHg 96%
22:00 +2°C° 0.3 mm 7 m/S 739 mmHg 96%
23:00 +2°C° 0.3 mm 6 m/S 739 mmHg 96%
Mehr zeigen

Wir brauchen deine Erlaubnis

Meteoprog und unser Service Anbieter werden persönliche Daten aufbewahren, so wie Cookies, Geräte Bezeichnung oder ähnliche Technologien von deinem Gerät und Prozess, so wie Persönliche Daten Inhalte und Werbungen, genauso wie social Media und den Verkehr zu analysieren.

  • Aufbewahrung und/oder Zugang zu deiner Geräte Informationen.

    Cookies, Geräte Bezeichnung oder andere Informationen, können aufbewahrt oder Zugang zu deinem Gerät erhalten, für den Grund, der oben angegeben wird.

  • Personalisierte Werbung und Inhalte, Messungen, Einblick in das Publikum und Produkt Entwicklung.

    Werbungen und Inhalte können personalisiert werden, basierend auf ein Profil. Mehr Daten können besser personalisierte Werbungen und Inhalte hinzufügen. Werbung und Inhalte können gezeigt und gemessen werden. Einblicke über das Publikum, welche die Werbung gesehen haben und den Inhalt, können abgeleitet werden. So wie Daten können genutzt werden, um es zu verbessern oder die Benutzer Erfahrung zu verbessern das System und die Software.

Wenn du “Ich stimme zu” klickst, erlaubst du uns, die Cookies zu benutzen die Geräte Bezeichnung, den Web oder ähnliche Technologien zu benutzen. Deine Settings, können in deinem Gerät bei deinem Browser geändert werden.

Für den bestimmten Zweck, berechtigten Interessen beruhen darauf, mehr als auf den Inhalt. Du kannst mehr darüber in unseren Privaten und Cookie Politik lesen.